Location: Buckland
(65.9785°N, 161.1281°W)
Time: 22:46:20
(UTC+00:00)

Transit 4A - Pass Details

Date: 30 November 2020
Orbit: 864 x 981 km, 66.8° (Epoch: 19 January)

Event Time Altitude Azimuth Distance (km) Brightness Sun altitude
Rises 01:19:01 0° 297° (WNW) 3,694 11.2 -3.1°
Reaches altitude 10° 01:21:37 10° 294° (WNW) 2,744 10.6 -3.3°
Maximum altitude 01:27:59 66° 215° (SW) 1,064 8.6 -3.7°
Drops below altitude 10° 01:34:14 10° 135° (SE) 2,698 10.4 -4.1°
Sets 01:36:46 0° 132° (SE) 3,627 11.0 -4.3°
